Ottumwa, IA

1:46 AM CST on December 09, 2019 (GMT -0600)
Ottumwa Industrial

Weather History for KOTM - November, 2019

Change the Weather History Date:

Tuesday, November 19, 2019

  Actual Average Record
Temperature  
Mean Temperature 44 °F 37 °F  
Max Temperature 55 °F 47 °F 79 °F (1942)
Min Temperature 32 °F 28 °F 9 °F (1937)
Degree Days  
Heating Degree Days 22 28  
Month to date heating degree days 585 434  
Since 1 July heating degree days 1137 958  
Cooling Degree Days 0 0  
Month to date cooling degree days 0 0  
Year to date cooling degree days 1095 938  
Moisture  
Dew Point 37 °F    
Average Humidity 81    
Maximum Humidity 100    
Minimum Humidity 46    
Precipitation  
Precipitation 0.00 in 0.07 in 0.58 in (1992)
Month to date precipitation 0.13 1.60  
Year to date precipitation 38.93 34.92  
Sea Level Pressure  
Sea Level Pressure 29.85 in    
Wind  
Wind Speed 7 mph ()    
Max Wind Speed 23 mph    
Max Gust Speed 30 mph    
Visibility 9.0 miles    
Events      
T = Trace of Precipitation, MM = Missing Value Source: Averaged Metar Reports

Daily Weather History Graph

Daily Weather History Graph

Search for Another Location

Airport or City:

Astronomy

Nov. 19, 2019 Rise Set
Actual Time 7:02 AM CST 4:47 PM CST
Civil Twilight 6:32 AM CST 5:17 PM CST
Nautical Twilight 5:58 AM CST 5:51 PM CST
Astronomical Twilight 5:25 AM CST 6:23 PM CST
Moon 11:44 PM CST (11/19) 1:12 PM CST (11/19)
Length of Visible Light 10h 45m
Length of Day
9h 45m
Waning Gibbous, 51% of the Moon is Illuminated
Nov 19
Waning Gibbous
Nov 19
Last Quarter
Nov 26
New
Dec 4
First Quarter
Dec 11
Full

Hourly Weather History & Observations

Time (CST) Temp. Windchill Dew Point Humidity Pressure Visibility Wind Dir Wind Speed Gust Speed Precip Events Conditions
12:25 AM 39.9 °F - 39.0 °F 97% 29.69 in 5.0 mi Calm Calm - N/A   Overcast
12:53 AM 39.9 °F 37.8 °F 39.0 °F 97% 29.70 in 4.0 mi SW 3.5 mph - N/A   Overcast
1:53 AM 41.0 °F 37.1 °F 39.9 °F 96% 29.70 in 5.0 mi West 5.8 mph - N/A   Overcast
2:32 AM 42.1 °F 36.6 °F 39.9 °F 92% 29.69 in 6.0 mi WNW 9.2 mph - N/A   Overcast
3:18 AM 44.1 °F 37.1 °F 41.0 °F 89% 29.69 in 10.0 mi NW 15.0 mph 24.2 mph N/A   Overcast
3:53 AM 44.1 °F 36.5 °F 41.0 °F 89% 29.72 in 10.0 mi NW 17.3 mph - N/A   Overcast
4:53 AM 43.0 °F 35.7 °F 39.9 °F 89% 29.75 in 10.0 mi NW 15.0 mph - 0.00 in   Overcast
5:53 AM 43.0 °F 35.4 °F 39.0 °F 86% 29.77 in 10.0 mi NW 16.1 mph - N/A   Overcast
6:53 AM 42.1 °F 35.2 °F 39.0 °F 89% 29.79 in 10.0 mi NW 12.7 mph 24.2 mph 0.00 in   Overcast
7:53 AM 42.1 °F 36.6 °F 39.0 °F 89% 29.82 in 7.0 mi NW 9.2 mph - N/A   Overcast
8:42 AM 43.0 °F 36.8 °F 39.0 °F 86% 29.82 in 8.0 mi NW 11.5 mph - N/A   Overcast
8:53 AM 43.0 °F 37.7 °F 39.9 °F 89% 29.84 in 8.0 mi NW 9.2 mph - N/A   Overcast
9:53 AM 45.0 °F 40.1 °F 41.0 °F 86% 29.87 in 9.0 mi WNW 9.2 mph - N/A   Overcast
10:53 AM 48.9 °F - 42.1 °F 77% 29.87 in 10.0 mi WNW 10.4 mph 19.6 mph N/A   Overcast
11:28 AM 48.9 °F - 41.0 °F 74% 29.85 in 10.0 mi West 9.2 mph - N/A   Mostly Cloudy
11:37 AM 50.0 °F - 42.1 °F 74% 29.85 in 10.0 mi West 10.4 mph - N/A   Scattered Clouds
11:53 AM 51.1 °F - 41.0 °F 68% 29.86 in 10.0 mi WNW 10.4 mph - N/A   Clear
12:53 PM 54.0 °F - 37.9 °F 55% 29.86 in 10.0 mi WNW 18.4 mph 25.3 mph N/A   Clear
1:53 PM 55.0 °F - 37.0 °F 51% 29.87 in 10.0 mi West 15.0 mph - N/A   Clear
2:53 PM 55.0 °F - 35.1 °F 47% 29.87 in 10.0 mi NW 12.7 mph - N/A   Clear
3:53 PM 53.1 °F - 34.0 °F 48% 29.91 in 10.0 mi NW 12.7 mph - N/A   Clear
4:53 PM 46.0 °F 43.1 °F 35.1 °F 66% 29.92 in 10.0 mi North 5.8 mph - N/A   Clear
5:53 PM 37.9 °F 35.5 °F 32.0 °F 79% 29.94 in 10.0 mi NNE 3.5 mph - N/A   Clear
6:53 PM 35.1 °F 32.2 °F 30.0 °F 82% 29.96 in 10.0 mi NNE 3.5 mph - N/A   Clear
7:53 PM 39.0 °F 36.8 °F 35.1 °F 86% 29.97 in 10.0 mi ENE 3.5 mph - N/A   Clear
8:53 PM 36.0 °F - 30.9 °F 82% 29.98 in 10.0 mi Calm Calm - N/A   Clear
9:53 PM 33.1 °F - 30.0 °F 89% 29.99 in 10.0 mi Calm Calm - N/A   Clear
10:53 PM 32.0 °F - 30.9 °F 96% 30.01 in 10.0 mi Calm Calm - N/A   Clear
11:53 PM 33.1 °F - 30.9 °F 92% 30.03 in 10.0 mi Calm Calm - N/A   Clear